(323475) = 2004 LQ5

Discovered at Campo Imperatore on 2004-06-10 by CINEOS.

Orbit

Orbit type: Main Belt

Note: WebGL enabled browser required.

epoch2024-03-31.0
epoch JD2460400.5
perihelion date2021-10-26.34649
perihelion JD2459513.84649
argument of perihelion (°)165.62879
ascending node (°)156.23472
inclination (°)4.65101
eccentricity0.2724559
perihelion distance (AU)1.8981550
Tisserand w.r.t. Jupiter3.4
ΔV w.r.t. Earth (km/sec)8.8
semimajor axis (AU)2.6089895
mean anomaly (°)207.37160
mean daily motion (°/day)0.23388120
aphelion distance (AU)3.320
period (years)4.21
P-vector [x]0.78687124
P-vector [y]-0.57389841
P-vector [z]-0.22687941
Q-vector [x]0.61625146
Q-vector [y]0.75020456
Q-vector [z]0.23963982
absolute magnitude16.7
phase slope0.15
uncertainty0
referenceMPEC 2024-E73
observations used328
oppositions14
arc length (days)7234
first opposition used2004
last opposition used2024
residual rms (arc-secs)0.80
perturbers coarse indicatorM-v
perturbers precise indicator003Ek
first observation date used2004-05-15.0
last observation date used2024-03-05.0
computer nameMPCLINUX
JD of orbit computation2456612.569766
perihelion JD uncertainty (days)7.9149E-05
argument of perihelion uncertainty (°)1.0128E-04
ascending node uncertainty (°)9.9951E-05
inclination uncertainty (°)7.9417E-06
eccentricity uncertainty 7.1572E-08
perihelion distance uncertainty (AU)1.7300E-07
Minimum Orbit Intersection Distances (in AU)
for orbit epoch: 2460400.5, reference: E2024-E73
Mercury1.48431
Venus1.17322
Earth0.88593
Mars0.51979
Jupiter2.01485
Saturn5.859
Uranus15.1546
Neptune26.9594

Observations

357 total observations over interval: 2004 05 15.30451 – 2024 03 05.241777
These data are available for download (format description).

Date (UT) J2000 RA J2000 Dec Magn Location Ref
2004 05 15.30451 16 28 36.43 -13 31 33.7 19.5   704 – Lincoln Laboratory ETS, New Mexico MPS 174710
2004 05 15.31519 16 28 36.03 -13 31 30.8 19.9   704 – Lincoln Laboratory ETS, New Mexico MPS 174710
2004 05 15.32553 16 28 35.41 -13 31 29.3 19.2   704 – Lincoln Laboratory ETS, New Mexico MPS 174710
2004 05 15.34763 16 28 34.23 -13 31 24.9 19.7   704 – Lincoln Laboratory ETS, New Mexico MPS 174710
2004 06 10.92682 16 04 11.93 -12 18 27.0 19.1 R 599 – Campo Imperatore-CINEOS MPS 109077
2004 06 10.93531 16 04 11.44 -12 18 26.7 19.6 R 599 – Campo Imperatore-CINEOS MPS 109077
2004 06 10.94381 16 04 10.98 -12 18 25.7 19.0 R 599 – Campo Imperatore-CINEOS MPS 109077
2004 06 10.95233 16 04 10.53 -12 18 24.8 19.3 R 599 – Campo Imperatore-CINEOS MPS 109077
2004 06 11.92240 16 03 20.59 -12 17 07.4 19.3 R 599 – Campo Imperatore-CINEOS MPS 109077
2004 06 11.93376 16 03 19.99 -12 17 05.9 19.1 R 599 – Campo Imperatore-CINEOS MPS 109077
2004 06 11.94513 16 03 19.38 -12 17 05.1 19.0 R 599 – Campo Imperatore-CINEOS MPS 109077
2004 06 16.22850 15 59 51.13 -12 12 58.6 19.0   704 – Lincoln Laboratory ETS, New Mexico MPS 109077
2004 06 16.23857 15 59 50.68 -12 12 57.2 19.5   704 – Lincoln Laboratory ETS, New Mexico MPS 109077
2004 06 16.24873 15 59 50.28 -12 12 56.9 19.8   704 – Lincoln Laboratory ETS, New Mexico MPS 109077
2004 06 16.25880 15 59 49.73 -12 12 56.3 19.5   704 – Lincoln Laboratory ETS, New Mexico MPS 109077
2004 06 22.26078 15 55 38.00 -12 11 45.0 19.6 V 691 – Steward Observatory, Kitt Peak-Spacewatch MPS 109599
2004 06 22.28812 15 55 36.91 -12 11 45.2 19.6 V 691 – Steward Observatory, Kitt Peak-Spacewatch MPS 109599
2004 06 22.31936 15 55 35.68 -12 11 45.6 19.6 V 691 – Steward Observatory, Kitt Peak-Spacewatch MPS 109599
2006 01 31.15061 04 32 08.41 +16 21 00.6 21.0 V G96 – Mt. Lemmon Survey MPS 378603
2006 01 31.15790 04 32 08.44 +16 21 02.1 21.1 V G96 – Mt. Lemmon Survey MPS 378603
2006 01 31.16521 04 32 08.52 +16 21 02.8 21.5 V G96 – Mt. Lemmon Survey MPS 378603
2006 01 31.17250 04 32 08.55 +16 21 04.7 22.1 V G96 – Mt. Lemmon Survey MPS 378603
2007 01 27.37355 09 58 40.83 +10 37 55.0 21.2 V G96 – Mt. Lemmon Survey MPS 304853
2007 01 27.38216 09 58 40.44 +10 37 57.8 21.9 V G96 – Mt. Lemmon Survey MPS 304853
2007 01 27.39078 09 58 40.00 +10 37 59.5 21.9 V G96 – Mt. Lemmon Survey MPS 304853
2007 01 27.39935 09 58 39.64 +10 38 02.2 22.1 V G96 – Mt. Lemmon Survey MPS 304854
2007 02 13.29375 09 44 43.26 +12 05 57.1 20.8 V G96 – Mt. Lemmon Survey MPS 304854
2007 02 13.30263 09 44 42.75 +12 06 00.0 20.6 V G96 – Mt. Lemmon Survey MPS 304854
2007 02 13.31155 09 44 42.28 +12 06 03.1 20.6 V G96 – Mt. Lemmon Survey MPS 304854
2007 02 13.32076 09 44 41.85 +12 06 05.8 20.5 V G96 – Mt. Lemmon Survey MPS 304854
2009 10 24.39532 03 51 21.27 +12 47 13.0 19.5 V 703 – Catalina Sky Survey MPS 304854
2009 10 24.40550 03 51 20.84 +12 47 10.1 19.8 V 703 – Catalina Sky Survey MPS 304854
2009 10 24.41560 03 51 20.23 +12 47 05.4 20.7 V 703 – Catalina Sky Survey MPS 304854
2009 10 24.42579 03 51 19.76 +12 47 02.5 19.2 V 703 – Catalina Sky Survey MPS 304854
2009 11 09.34946 03 36 53.92 +11 36 08.9 18.7 V 703 – Catalina Sky Survey MPS 304854
2009 11 09.35595 03 36 53.71 +11 36 06.4 18.6 V 703 – Catalina Sky Survey MPS 304854
2009 11 09.36265 03 36 53.31 +11 36 04.9 19.2 V 703 – Catalina Sky Survey MPS 304854
2009 11 09.36920 03 36 52.81 +11 36 04.1 19.4 V 703 – Catalina Sky Survey MPS 304854
2009 11 12.92983 03 33 18.33 +11 21 31.3 18.6 V J75 – OAM Observatory, La Sagra MPS 304854
2009 11 12.94247 03 33 17.70 +11 21 31.6 19.2 V J75 – OAM Observatory, La Sagra MPS 304854
2009 11 12.95512 03 33 16.98 +11 21 27.6 19.1 V J75 – OAM Observatory, La Sagra MPS 304854
2009 11 18.32236 03 27 54.07 +11 01 32.0 19.3 V G96 – Mt. Lemmon Survey MPS 304854
2009 11 18.33081 03 27 53.53 +11 01 30.2 19.3 V G96 – Mt. Lemmon Survey MPS 304854
2009 11 18.33949 03 27 52.99 +11 01 28.5 19.2 V G96 – Mt. Lemmon Survey MPS 304854
2009 11 18.34810 03 27 52.48 +11 01 26.4 19.1 V G96 – Mt. Lemmon Survey MPS 304854
2011 02 09.28334 08 47 34.46 +15 11 15.2 21.8 V 291 – LPL/Spacewatch II MPS 369481
2011 02 09.28732 08 47 34.26 +15 11 16.1 21.7 V 291 – LPL/Spacewatch II MPS 369481
2011 02 09.29123 08 47 34.04 +15 11 16.7 21.7 V 291 – LPL/Spacewatch II MPS 369481
2011 02 09.37395 08 47 29.54 +15 11 40.2 21.5 V G96 – Mt. Lemmon Survey MPS 369481
2011 02 09.37705 08 47 29.40 +15 11 41.5 21.6 V G96 – Mt. Lemmon Survey MPS 369481
2011 02 09.38023 08 47 29.18 +15 11 40.5 21.7 V G96 – Mt. Lemmon Survey MPS 369481
2011 02 09.38333 08 47 29.04 +15 11 42.2 22.1 V G96 – Mt. Lemmon Survey MPS 369481
2012 03 13.32720 13 28 15.06 -04 57 08.7 21.2 V 691 – Steward Observatory, Kitt Peak-Spacewatch MPS 416121
2012 03 13.34489 13 28 14.45 -04 57 02.8 21.1 V 691 – Steward Observatory, Kitt Peak-Spacewatch MPS 416121
2012 03 13.36263 13 28 13.87 -04 56 57.3 21.1 V 691 – Steward Observatory, Kitt Peak-Spacewatch MPS 416121
2012 03 31.32186 13 15 39.42 -03 06 49.2 20.4 V G96 – Mt. Lemmon Survey MPS 418446
2012 03 31.32874 13 15 39.02 -03 06 46.6 20.4 V G96 – Mt. Lemmon Survey MPS 418446
2012 03 31.33559 13 15 38.66 -03 06 43.7 20.4 V G96 – Mt. Lemmon Survey MPS 418446
2012 03 31.34252 13 15 38.34 -03 06 40.7 20.5 V G96 – Mt. Lemmon Survey MPS 418446
2012 04 12.34650 13 05 20.723 -01 46 55.53 20.5 w F51 – Pan-STARRS 1, Haleakala MPS 420781
2012 04 12.36041 13 05 19.977 -01 46 50.21 20.4 w F51 – Pan-STARRS 1, Haleakala MPS 420781
2012 04 12.37442 13 05 19.226 -01 46 44.73 20.5 w F51 – Pan-STARRS 1, Haleakala MPS 420781
2012 04 12.38839 13 05 18.471 -01 46 39.30 20.4 w F51 – Pan-STARRS 1, Haleakala MPS 420781
2012 04 15.37723 13 02 43.170 -01 27 34.77 20.8 g F51 – Pan-STARRS 1, Haleakala MPS 421828
2012 04 15.38886 13 02 42.548 -01 27 30.20 21.2 g F51 – Pan-STARRS 1, Haleakala MPS 421828
2012 04 23.44626 12 56 00.013 -00 39 48.58 20.6 r F51 – Pan-STARRS 1, Haleakala MPS 422790
2012 04 23.45663 12 55 59.503 -00 39 44.99 20.6 r F51 – Pan-STARRS 1, Haleakala MPS 422790
2012 04 28.32621 12 52 17.158 -00 14 31.99 20.8 i F51 – Pan-STARRS 1, Haleakala MPS 423665
2012 04 28.33825 12 52 16.605 -00 14 28.45 20.4 i F51 – Pan-STARRS 1, Haleakala MPS 423665
2012 05 23.19904 12 40 17.72 +00 55 44.4 21.5 V G96 – Mt. Lemmon Survey MPS 425959
2012 05 23.20523 12 40 17.65 +00 55 44.7 20.3 V G96 – Mt. Lemmon Survey MPS 425959
2012 05 23.21847 12 40 17.50 +00 55 46.0 21.4 V G96 – Mt. Lemmon Survey MPS 425959
2012 05 23.22477 12 40 17.40 +00 55 46.5 21.1 V G96 – Mt. Lemmon Survey MPS 425959
2013 06 18.43433 00 23 42.72 +02 42 26.1 20.2 V G96 – Mt. Lemmon Survey MPS 471160
2013 06 18.43941 00 23 43.26 +02 42 28.8 20.3 V G96 – Mt. Lemmon Survey MPS 471160
2013 06 18.44968 00 23 44.34 +02 42 34.3 20.5 V G96 – Mt. Lemmon Survey MPS 471160
2013 09 04.43262 01 44 08.32 +06 32 36.1 19.1 V G96 – Mt. Lemmon Survey MPS 476077
2013 09 04.43784 01 44 08.30 +06 32 34.7 19.1 V G96 – Mt. Lemmon Survey MPS 476077
2013 09 04.44313 01 44 08.27 +06 32 33.2 18.9 V G96 – Mt. Lemmon Survey MPS 476077
2013 09 04.44839 01 44 08.24 +06 32 31.8 19.0 V G96 – Mt. Lemmon Survey MPS 476077
2013 09 06.36631 01 44 00.96 +06 23 35.9 19.7 V 691 – Steward Observatory, Kitt Peak-Spacewatch MPS 476077
2013 09 06.38745 01 44 00.77 +06 23 29.9 19.6 V 691 – Steward Observatory, Kitt Peak-Spacewatch MPS 476077
2013 09 06.40509 01 44 00.63 +06 23 24.8 19.6 V 691 – Steward Observatory, Kitt Peak-Spacewatch MPS 476077
2013 09 13.26015 01 42 33.62 +05 46 01.7 19.2 r I41 – Palomar Mountain--ZTF MPS 477610
2013 09 13.29657 01 42 32.84 +05 45 48.8 19.2 r I41 – Palomar Mountain--ZTF MPS 477610
2013 09 13.34257 01 42 31.84 +05 45 32.3 19.2 r I41 – Palomar Mountain--ZTF MPS 477610
2013 09 14.25629 01 42 13.40 +05 39 57.6 19.3 r I41 – Palomar Mountain--ZTF MPS 477610
2013 09 14.29277 01 42 12.55 +05 39 44.1 19.2 r I41 – Palomar Mountain--ZTF MPS 477610
2013 09 14.32983 01 42 11.68 +05 39 30.4 19.3 r I41 – Palomar Mountain--ZTF MPS 477610
2013 09 15.28763 01 41 50.52 +05 33 31.3 19.2 r I41 – Palomar Mountain--ZTF MPS 477610
2013 09 15.32295 01 41 49.63 +05 33 17.9 19.1 r I41 – Palomar Mountain--ZTF MPS 477610
2013 09 25.37483 01 36 33.09 +04 23 41.6 18.9 V 703 – Catalina Sky Survey MPS 478658
